Temperature
7 7 7 7 7 7 7 7 7 7 7 7 8 8 8 8 9 9 9 9 9 9 9 9 9 9 9 9 9 9 9 9 9 9 9 9 9 9
6 6 6 6 6 6 6 6 6 6 6 6 6 7 7 7 7 7 8 8 8 8 8 8 8 8 8 8 8 8 8 8 8 8 9 9 9 9
5 5 5 5 6 6 6 5 5 5 5 5 5 6 6 6 6 7 7 7 7 7 7 7 8 8 7 8 8 8 7 8 8 8 8 8 8 8
4 4 4 4 4 4 5 5 5 4 4 4 5 5 5 5 5 6 6 6 6 6 6 7 7 7 7 7 7 7 7 7 7 7 7 8 8 8
4 4 4 4 4 3 3 3 3 3 3 3 3 4 4 4 4 4 5 5 5 5 5 6 6 6 6 6 6 6 6 6 6 6 7 7 7 7
3 3 3 3 3 3 3 3 2 2 2 2 2 2 3 3 3 3 4 4 4 4 5 5 5 5 5 5 5 5 5 5 5 6 6 6 6 6
2 2 2 2 2 2 2 2 2 2 1 1 1 1 1 1 1 2 2 2 3 3 3 4 4 4 4 4 4 4 4 4 4 5 5 5 5 5
1 1 1 1 1 1 1 0 0 0 0 0 0 0 0 -0 0 0 -0 0 1 1 1 2 3 3 3 3 3 3 3 4 4 4 4 4 4 4
0 0 0 0 0 -0 -0 -0 -0 -0 -1 -1 -1 -1 -1 -1 -1 -1 -1 -1 -1 -0 -0 1 1 2 2 2 2 2 2 3 3 3 3 3 3 3
-1 -0 -1 -1 -1 -1 -1 -1 -1 -1 -1 -1 -2 -2 -2 -2 -2 -2 -2 -2 -1 -1 -1 -1 -0 0 1 1 2 2 2 2 2 2 2 2 2 2
-1 -1 -2 -2 -2 -2 -2 -2 -2 -2 -2 -2 -3 -3 -3 -3 -3 -3 -3 -3 -2 -2 -2 -2 -2 -1 -0 1 1 1 1 1 1 1 1 1 2 2
-2 -2 -3 -3 -3 -3 -3 -3 -3 -3 -3 -3 -3 -3 -3 -3 -3 -3 -4 -4 -4 -4 -3 -4 -3 -3 -3 -1 -0 0 0 0 0 0 0 1 1 1
-3 -3 -3 -4 -4 -4 -4 -4 -4 -4 -4 -4 -4 -3 -3 -4 -4 -4 -4 -4 -5 -5 -4 -5 -4 -4 -4 -4 -2 -1 -1 -1 -0 -0 0 0 0 0
-4 -4 -4 -4 -4 -5 -4 -5 -5 -5 -5 -5 -4 -4 -4 -4 -4 -5 -5 -5 -5 -5 -4 -5 -5 -5 -5 -4 -4 -2 -2 -1 -1 -1 -1 -0 -0 -0
-5 -5 -5 -5 -5 -5 -5 -5 -5 -5 -5 -6 -6 -6 -6 -6 -6 -5 -5 -5 -5 -5 -5 -5 -5 -5 -5 -5 -4 -3 -3 -2 -2 -2 -2 -1 -1 -1
-5 -5 -5 -5 -5 -5 -5 -5 -6 -6 -6 -6 -6 -6 -6 -6 -6 -6 -6 -6 -5 -5 -5 -5 -5 -5 -5 -5 -5 -4 -3 -3 -3 -2 -2 -2 -2 -1
-6 -6 -6 -6 -6 -6 -6 -6 -6 -6 -7 -7 -7 -7 -7 -7 -7 -7 -7 -7 -7 -6 -6 -5 -5 -5 -5 -5 -4 -4 -4 -4 -3 -3 -3 -3 -2 -2
-6 -6 -6 -6 -7 -7 -7 -7 -7 -7 -7 -8 -8 -8 -8 -8 -7 -7 -7 -7 -7 -7 -7 -6 -6 -5 -5 -5 -5 -5 -4 -4 -4 -4 -4 -4 -3 -2
-6 -7 -7 -7 -7 -7 -8 -8 -8 -8 -8 -8 -8 -8 -8 -8 -8 -8 -8 -8 -8 -7 -7 -7 -7 -7 -7 -7 -5 -5 -5 -5 -5 -4 -4 -4 -4 -3
-7 -7 -7 -7 -8 -8 -8 -8 -8 -8 -8 -8 -9 -9 -9 -9 -9 -9 -8 -8 -8 -8 -7 -7 -7 -7 -8 -8 -7 -5 -5 -5 -5 -5 -4 -4 -4 -3
-7 -8 -8 -8 -8 -8 -8 -9 -9 -9 -9 -9 -9 -9 -9 -9 -9 -9 -9 -9 -8 -8 -8 -7 -7 -7 -7 -7 -7 -6 -5 -5 -5 -5 -5 -5 -4 -4
-8 -8 -8 -8 -8 -8 -9 -9 -9 -9 -9 -9 -9 -9 -9 -9 -9 -9 -9 -9 -9 -8 -8 -8 -7 -7 -7 -7 -7 -7 -6 -5 -5 -5 -5 -5 -5 -5
-8 -8 -8 -8 -9 -9 -9 -9 -9 -9 -9 -9 -9 -9 -9 -9 -9 -9 -9 -9 -9 -8 -8 -8 -8 -7 -7 -7 -7 -7 -6 -6 -6 -5 -5 -5 -4 -4
Wind_Speed
3 3 3 3 2 2 2 3 4 5 5 2 1 1 2 3 5 5 6 9 10 12 13 14 14 13 14 14 14 16 17 17 17 18 19 19 20 21
2 2 2 2 2 2 2 2 3 5 5 2 2 2 3 4 6 6 6 8 9 10 11 12 13 13 12 12 12 14 14 15 16 18 19 20 21 21
3 3 3 3 2 2 2 2 2 3 6 4 2 2 3 4 5 6 6 6 7 10 11 11 12 12 11 11 11 12 13 13 14 15 16 18 19 20
5 4 4 3 3 3 2 2 2 2 4 5 3 3 3 4 5 6 6 7 7 10 11 11 12 12 12 11 11 12 13 13 13 14 16 17 18 18
5 4 4 4 3 3 3 3 3 3 2 3 4 3 3 4 5 5 6 5 7 9 10 12 12 12 12 12 12 12 12 12 13 14 15 16 17 17
5 4 4 4 3 3 3 3 3 3 3 3 4 3 3 4 4 5 6 5 7 7 9 10 12 12 13 13 12 12 13 13 13 14 14 15 15 16
6 5 5 6 6 5 3 3 3 3 3 3 4 4 4 4 5 5 7 7 6 4 5 6 7 7 8 11 12 12 13 13 14 14 14 15 15 15
5 5 5 6 7 8 8 7 6 4 4 4 4 5 6 5 5 6 6 6 6 3 5 8 6 7 6 7 12 14 15 15 14 14 14 15 15 15
5 5 5 6 7 5 6 7 7 8 7 4 5 6 6 7 7 7 7 7 8 5 6 8 6 7 6 9 14 15 15 14 13 13 14 14 15 16
5 5 5 5 6 5 4 5 5 5 6 4 4 5 6 6 6 7 8 8 7 5 4 6 6 6 8 8 14 13 13 13 13 14 15 15 15 16
6 6 6 5 8 9 5 5 5 5 7 9 9 9 11 11 9 6 6 6 7 5 3 4 5 6 7 7 8 11 12 13 14 15 15 15 15 16
5 6 8 9 10 9 5 4 5 6 6 7 7 8 8 8 10 5 5 6 6 5 2 3 4 5 5 4 4 6 8 12 14 14 15 15 15 10
4 5 6 11 11 11 8 4 6 7 5 6 6 6 5 5 5 5 4 5 6 6 4 4 5 5 6 6 6 6 6 7 8 10 13 14 13 11
4 4 5 10 11 10 8 8 10 9 5 5 6 6 6 6 6 6 7 7 7 9 9 7 6 7 8 9 7 5 5 6 7 8 7 10 11 13
4 7 8 10 9 7 9 11 9 5 5 5 6 6 6 7 7 7 7 7 8 9 9 8 8 8 8 9 8 8 8 7 6 6 6 6 7 7
4 5 8 8 7 7 8 7 5 5 5 5 6 7 6 6 6 6 7 7 7 7 6 8 8 8 8 10 9 10 8 6 6 6 6 7 7 7
4 2 3 4 5 5 5 5 5 6 6 6 6 7 7 7 7 6 6 6 6 8 9 6 6 8 9 10 9 9 8 8 7 7 7 8 7 6
4 3 3 4 5 6 6 6 6 6 6 6 6 7 7 8 8 7 6 6 7 8 8 8 8 7 5 5 9 9 7 7 7 7 6 7 8 6
3 3 3 4 4 5 5 6 6 6 6 6 6 7 7 7 8 8 8 7 8 8 8 7 6 5 7 8 6 6 6 7 7 7 6 6 7 7
2 3 3 4 4 5 5 6 6 7 6 6 7 7 7 7 8 8 8 8 9 9 8 7 5 5 6 7 7 7 9 8 6 7 6 6 6 7
3 3 4 4 5 5 6 6 6 7 7 7 7 7 7 7 8 8 9 12 10 8 9 8 8 11 7 5 6 6 6 7 8 6 6 5 5 4
3 4 4 5 5 5 6 6 7 7 7 7 7 7 7 7 8 10 9 9 9 8 9 9 8 6 4 5 7 8 7 7 7 9 8 6 4 3
4 4 5 5 5 5 5 6 8 7 7 7 7 8 8 8 8 9 9 9 9 9 9 8 7 5 5 5 6 6 7 7 6 6 5 6 7 8
Wind_Direction
278 271 265 267 264 262 257 246 249 263 265 245 246 318 307 304 305 298 291 286 278 272 269 271 270 267 264 260 260 259 255 252 250 250 249 249 248 249
311 305 296 295 294 292 282 276 262 260 266 268 265 306 321 327 317 306 298 300 291 285 282 277 270 267 267 265 263 261 255 252 252 252 251 251 250 249
345 346 333 329 326 329 323 317 299 280 271 283 296 317 322 324 321 321 310 300 299 293 283 284 280 271 270 269 266 263 257 254 254 255 256 255 253 250
1 6 1 4 2 356 355 343 319 306 282 285 297 310 305 316 310 310 314 312 302 298 291 286 286 277 269 269 269 266 261 258 257 257 257 257 256 254
9 12 7 14 7 358 358 347 329 325 307 293 298 300 296 311 311 308 305 299 306 302 298 289 286 286 281 272 269 268 265 261 258 257 257 256 255 255
15 17 15 13 359 353 356 344 332 325 319 308 302 301 297 302 309 309 311 307 305 304 300 299 297 289 284 283 276 269 265 263 260 259 258 256 255 254
20 16 13 17 11 6 357 340 333 322 316 309 306 308 308 316 316 312 306 309 298 294 301 296 295 285 282 281 276 273 273 270 265 262 260 258 255 254
16 6 8 11 10 7 2 356 348 328 313 303 300 304 305 304 305 306 303 308 298 306 309 298 288 281 276 272 280 283 277 273 269 268 266 262 260 258
8 2 360 357 358 344 348 354 354 351 339 311 300 300 302 305 301 298 294 290 285 294 302 291 287 278 279 286 289 285 281 275 271 271 270 266 262 260
1 354 348 342 342 339 342 345 342 340 335 332 304 299 302 302 292 289 289 291 284 282 276 277 288 283 289 285 291 287 285 282 279 276 273 270 265 261
356 354 349 338 340 345 347 336 331 329 339 342 335 330 327 326 323 312 308 304 299 296 282 275 289 295 283 273 283 291 289 286 283 280 276 273 269 266
350 350 354 351 347 352 352 340 333 326 331 334 336 333 329 328 334 325 303 297 297 295 286 290 288 307 299 271 272 284 286 286 285 282 280 277 274 269
348 347 345 351 354 356 357 350 333 334 337 332 328 326 324 322 321 314 300 287 285 278 291 301 291 291 280 289 290 278 274 280 281 278 278 279 275 270
339 331 335 347 352 356 356 348 347 349 340 332 332 331 329 324 317 310 300 287 273 273 282 281 279 288 291 288 288 284 277 274 274 274 269 275 273 272
331 334 341 350 355 358 357 356 356 349 336 334 330 322 313 305 305 305 303 297 289 283 282 274 270 277 277 280 281 285 292 285 266 266 270 269 270 267
333 341 349 355 359 356 356 354 349 339 337 328 319 314 312 312 313 313 312 315 309 300 284 277 271 268 274 276 274 278 279 272 278 280 278 275 268 259
335 351 348 347 350 347 343 343 342 340 337 328 323 322 321 321 317 315 309 310 303 303 309 305 287 271 260 266 272 270 275 279 276 281 289 288 278 265
350 346 340 341 339 338 337 335 334 334 332 326 323 321 322 320 318 317 312 307 303 302 303 307 313 313 301 269 243 259 270 275 283 284 282 285 285 281
355 335 329 330 330 330 328 325 323 323 322 321 319 319 318 316 316 316 315 310 304 301 299 299 303 305 308 306 287 244 265 286 287 287 278 280 279 281
336 323 319 319 320 319 317 315 314 316 317 316 315 313 313 311 312 312 311 306 303 302 301 298 290 286 280 285 289 288 278 274 279 284 292 298 288 281
315 311 309 308 308 308 307 306 306 307 307 309 308 307 307 307 307 306 307 308 306 301 302 299 290 296 288 282 285 290 288 281 281 281 287 295 298 296
304 304 304 303 303 301 301 302 304 303 305 304 305 305 305 302 302 305 307 307 303 299 296 295 296 300 286 280 289 295 303 308 311 309 294 278 272 271
299 298 297 297 297 297 296 297 299 299 299 300 302 303 303 303 302 302 302 302 302 300 301 302 305 300 288 283 290 297 301 310 319 325 322 320 307 292
Height
1453 1453 1453 1453 1454 1454 1455 1455 1456 1454 1453 1453 1454 1454 1455 1455 1455 1455 1455 1455 1455 1455 1456 1456 1457 1458 1459 1460 1461 1462 1463 1464 1466 1467 1468 1469 1470 1471
1449 1449 1449 1449 1449 1449 1450 1450 1450 1450 1448 1448 1449 1449 1449 1448 1448 1448 1448 1447 1447 1447 1447 1448 1448 1449 1450 1450 1451 1453 1454 1455 1456 1457 1459 1460 1461 1462
1445 1445 1444 1444 1444 1444 1444 1445 1445 1445 1443 1442 1443 1442 1442 1442 1441 1441 1440 1440 1439 1439 1439 1439 1439 1439 1440 1441 1442 1443 1444 1445 1446 1448 1449 1450 1451 1452
1442 1441 1441 1441 1440 1440 1440 1440 1440 1439 1439 1437 1436 1436 1435 1435 1434 1433 1433 1432 1431 1431 1430 1430 1430 1430 1431 1431 1433 1434 1434 1435 1436 1438 1439 1441 1442 1443
1440 1439 1438 1438 1437 1437 1436 1435 1435 1434 1434 1432 1430 1430 1429 1429 1428 1427 1426 1425 1424 1423 1422 1422 1421 1421 1421 1422 1422 1423 1424 1425 1426 1428 1429 1430 1431 1433
1437 1436 1436 1435 1434 1433 1433 1432 1431 1430 1429 1428 1426 1425 1424 1423 1421 1420 1418 1417 1416 1415 1415 1414 1413 1412 1412 1413 1413 1414 1415 1415 1416 1417 1418 1420 1421 1422
1436 1435 1433 1432 1432 1431 1430 1429 1428 1426 1425 1423 1422 1420 1419 1417 1416 1414 1412 1410 1409 1408 1406 1406 1405 1404 1403 1404 1404 1404 1405 1405 1406 1407 1408 1409 1410 1412
1434 1432 1431 1430 1429 1428 1427 1426 1424 1423 1421 1419 1418 1416 1414 1413 1411 1409 1407 1404 1402 1402 1399 1397 1397 1396 1395 1395 1395 1395 1395 1395 1396 1397 1398 1399 1399 1401
1432 1431 1429 1428 1427 1425 1423 1422 1421 1419 1418 1416 1414 1412 1410 1408 1407 1404 1402 1400 1397 1395 1393 1389 1389 1388 1387 1387 1387 1386 1386 1386 1387 1387 1388 1388 1389 1390
1430 1429 1427 1425 1424 1422 1420 1419 1417 1415 1414 1412 1410 1408 1406 1404 1402 1400 1397 1394 1391 1390 1388 1384 1381 1380 1379 1378 1378 1377 1377 1377 1377 1378 1378 1378 1379 1380
1428 1426 1425 1423 1421 1420 1418 1416 1414 1411 1410 1408 1406 1404 1401 1399 1397 1395 1392 1389 1384 1383 1382 1379 1375 1372 1370 1369 1370 1369 1369 1369 1368 1368 1368 1368 1369 1370
1426 1424 1422 1421 1419 1417 1415 1413 1410 1408 1405 1403 1401 1399 1397 1394 1392 1390 1387 1385 1381 1378 1376 1375 1371 1369 1363 1361 1362 1362 1361 1361 1360 1360 1359 1359 1360 1360
1424 1422 1420 1419 1417 1415 1412 1410 1407 1405 1402 1399 1397 1394 1392 1390 1387 1385 1383 1381 1377 1374 1373 1371 1367 1365 1362 1356 1354 1355 1355 1353 1352 1351 1351 1351 1351 1351
1423 1420 1418 1416 1414 1412 1409 1407 1404 1402 1399 1396 1393 1390 1388 1385 1383 1381 1378 1376 1373 1371 1369 1367 1363 1361 1358 1353 1349 1347 1347 1347 1345 1344 1343 1342 1342 1342
1421 1419 1416 1414 1412 1409 1407 1404 1401 1398 1395 1392 1389 1387 1384 1381 1378 1375 1373 1371 1368 1366 1364 1361 1359 1356 1353 1349 1344 1342 1340 1338 1338 1337 1335 1334 1333 1333
1419 1416 1414 1412 1410 1407 1404 1401 1398 1396 1393 1390 1386 1383 1380 1377 1374 1371 1368 1365 1362 1359 1358 1356 1353 1350 1347 1344 1341 1337 1335 1333 1331 1330 1329 1327 1326 1325
1416 1414 1412 1409 1407 1404 1402 1399 1396 1393 1390 1387 1383 1380 1377 1374 1371 1368 1364 1361 1358 1354 1351 1349 1347 1345 1342 1339 1335 1332 1330 1328 1326 1324 1322 1319 1318 1317
1414 1412 1409 1407 1405 1402 1399 1396 1393 1390 1387 1384 1381 1377 1374 1370 1367 1364 1361 1358 1354 1350 1347 1344 1341 1337 1335 1332 1331 1327 1325 1322 1320 1319 1317 1314 1311 1311
1412 1409 1407 1405 1402 1400 1397 1394 1391 1388 1385 1381 1378 1375 1371 1368 1364 1361 1357 1354 1350 1347 1344 1341 1338 1335 1331 1326 1324 1324 1321 1317 1315 1313 1312 1310 1307 1305
1409 1407 1405 1403 1400 1397 1395 1392 1389 1385 1382 1379 1375 1372 1368 1365 1361 1357 1354 1350 1346 1343 1340 1337 1335 1332 1329 1325 1320 1317 1317 1314 1311 1308 1306 1305 1303 1302
1406 1404 1402 1400 1398 1395 1392 1389 1386 1383 1380 1376 1373 1369 1366 1362 1358 1354 1350 1347 1343 1339 1336 1333 1330 1329 1325 1322 1318 1314 1312 1311 1308 1305 1303 1301 1299 1297
1403 1401 1399 1397 1395 1392 1389 1386 1383 1380 1377 1373 1370 1366 1362 1359 1355 1351 1347 1343 1339 1336 1332 1329 1327 1324 1322 1319 1315 1311 1308 1306 1305 1303 1301 1299 1297 1295
1400 1398 1396 1394 1391 1389 1386 1383 1380 1377 1373 1370 1366 1363 1359 1355 1352 1348 1344 1340 1336 1332 1329 1325 1323 1320 1318 1315 1312 1309 1306 1303 1301 1299 1298 1297 1295 1294